AWW46ST EKCH-EGFF

Flight info

Callsign AWW46ST
Flight time 1h 51m
Altitude 34000
Route LANGO M611 ALASA DCT MAXUN DCT VALAM DCT NOGRO M40 SABER L980 LAM L179 SAWPE Q63 CONKO
Aircraft A320/M-SDE3FGHIRWY/LB1

Departure

Time 2026-04-22 16:50
Airport Copenhagen Kastrup Airport (EKCH)

Arrival

Time 2026-04-22 18:41
Airport Cardiff International Airport (EGFF)
Time Latitude Longitude Altitude Speed Heading
2026-04-22 16:21 55.62521 12.65765 18 ft 0 kts
2026-04-22 16:27 55.62520 12.65765 17 ft 0 kts
2026-04-22 16:35 55.62519 12.65765 16 ft 0 kts
2026-04-22 16:37 55.62518 12.65765 16 ft 2 kts
2026-04-22 16:37 55.62506 12.65764 18 ft 3 kts
2026-04-22 16:37 55.62479 12.65766 19 ft 4 kts 350°
2026-04-22 16:38 55.62454 12.65779 18 ft 4 kts 331°
2026-04-22 16:38 55.62438 12.65797 15 ft 1 kts 318°
2026-04-22 16:38 55.62436 12.65801 15 ft 4 kts 318°
2026-04-22 16:42 55.62438 12.65798 15 ft 2 kts 315°
2026-04-22 16:42 55.62445 12.65757 17 ft 4 kts 282°
2026-04-22 16:42 55.62449 12.65717 17 ft 3 kts 273°
2026-04-22 16:43 55.62447 12.65690 17 ft 2 kts 263°
2026-04-22 16:43 55.62447 12.65686 17 ft 0 kts 263°
2026-04-22 16:43 55.62446 12.65669 17 ft 7 kts 262°
2026-04-22 16:43 55.62442 12.65484 18 ft 18 kts 269°
2026-04-22 16:44 55.62438 12.65260 19 ft 18 kts 266°
2026-04-22 16:44 55.62352 12.65190 21 ft 14 kts 177°
2026-04-22 16:44 55.62259 12.65199 22 ft 12 kts 180°
2026-04-22 16:44 55.62189 12.65158 25 ft 9 kts 213°
2026-04-22 16:45 55.62143 12.65106 25 ft 7 kts 213°
2026-04-22 16:45 55.62114 12.65072 24 ft 0 kts 213°
2026-04-22 16:45 55.62109 12.65066 23 ft 6 kts 213°
2026-04-22 16:46 55.61983 12.64920 20 ft 27 kts 213°
2026-04-22 16:46 55.61821 12.64735 21 ft 28 kts 213°
2026-04-22 16:46 55.61659 12.64545 21 ft 28 kts 214°
2026-04-22 16:46 55.61501 12.64367 19 ft 26 kts 213°
2026-04-22 16:47 55.61340 12.64184 16 ft 29 kts 210°
2026-04-22 16:47 55.61170 12.63987 17 ft 29 kts 214°
2026-04-22 16:47 55.61000 12.63789 20 ft 29 kts 213°
2026-04-22 16:47 55.60838 12.63601 22 ft 28 kts 212°
2026-04-22 16:48 55.60675 12.63415 20 ft 24 kts 212°
2026-04-22 16:48 55.60547 12.63236 21 ft 19 kts 209°
2026-04-22 16:48 55.60464 12.63273 24 ft 11 kts 135°
2026-04-22 16:48 55.60419 12.63364 26 ft 8 kts 130°
2026-04-22 16:49 55.60405 12.63431 26 ft 6 kts 90°
2026-04-22 16:49 55.60498 12.63598 27 ft 42 kts 41°
2026-04-22 16:49 55.60905 12.64224 24 ft 110 kts 41°
2026-04-22 16:49 55.61634 12.65323 19 ft 163 kts 36°
2026-04-22 16:50 55.62477 12.66665 643 ft 159 kts 39°
2026-04-22 16:50 55.63272 12.68068 1226 ft 164 kts 36°
2026-04-22 16:50 55.64147 12.69476 1695 ft 179 kts 34°
2026-04-22 16:50 55.65158 12.70987 2005 ft 202 kts 32°
2026-04-22 16:51 55.66318 12.72658 2378 ft 227 kts 32°
2026-04-22 16:51 55.67608 12.74510 2923 ft 247 kts 34°
2026-04-22 16:51 55.68895 12.76607 3771 ft 259 kts 46°
2026-04-22 16:51 55.69714 12.79521 4672 ft 273 kts 71°
2026-04-22 16:52 55.69778 12.82924 5581 ft 284 kts 98°
2026-04-22 16:52 55.68986 12.86161 6482 ft 294 kts 124°
2026-04-22 16:52 55.67426 12.88534 7308 ft 302 kts 153°
2026-04-22 16:52 55.65463 12.89904 8150 ft 305 kts 160°
2026-04-22 16:53 55.63395 12.90815 8966 ft 309 kts 175°
2026-04-22 16:53 55.61240 12.90711 9812 ft 311 kts 191°
2026-04-22 16:53 55.59165 12.89614 10569 ft 315 kts 206°
2026-04-22 16:53 55.57249 12.87512 10817 ft 335 kts 224°
2026-04-22 16:54 55.55588 12.84520 11280 ft 346 kts 229°
2026-04-22 16:54 55.53913 12.81415 11953 ft 351 kts 229°
2026-04-22 16:54 55.52206 12.78293 12699 ft 355 kts 228°
2026-04-22 16:54 55.50505 12.75113 13447 ft 358 kts 230°
2026-04-22 16:55 55.48860 12.71792 14173 ft 361 kts 231°
2026-04-22 16:55 55.47245 12.68376 14811 ft 364 kts 232°
2026-04-22 16:55 55.45631 12.64901 15443 ft 368 kts 232°
2026-04-22 16:55 55.44002 12.61397 16069 ft 372 kts 232°
2026-04-22 16:56 55.42347 12.57870 16695 ft 376 kts 231°
2026-04-22 16:56 55.40664 12.54322 17311 ft 379 kts 231°
2026-04-22 16:56 55.38956 12.50755 17916 ft 383 kts 230°
2026-04-22 16:56 55.37226 12.47161 18531 ft 387 kts 230°
2026-04-22 16:57 55.35479 12.43537 19058 ft 390 kts 230°
2026-04-22 16:57 55.33714 12.39885 19585 ft 394 kts 230°
2026-04-22 16:57 55.31932 12.36203 20113 ft 397 kts 230°
2026-04-22 16:57 55.30135 12.32487 20633 ft 401 kts 229°
2026-04-22 16:58 55.28938 12.30010 20988 ft 403 kts 229°
2026-04-22 16:58 55.26493 12.24964 21688 ft 408 kts 229°
2026-04-22 16:58 55.24646 12.21165 22207 ft 411 kts 229°
2026-04-22 16:58 55.22805 12.17381 22699 ft 415 kts 228°
2026-04-22 16:59 55.20895 12.13563 23194 ft 419 kts 224°
2026-04-22 16:59 55.18702 12.10203 23679 ft 420 kts 214°
2026-04-22 16:59 55.16384 12.07076 24169 ft 423 kts 221°
2026-04-22 16:59 55.14514 12.03066 24567 ft 429 kts 239°
2026-04-22 17:00 55.13364 11.98244 24927 ft 434 kts 254°
2026-04-22 17:00 55.11789 11.87963 25630 ft 442 kts 255°
2026-04-22 17:00 55.11007 11.82743 25970 ft 446 kts 255°
2026-04-22 17:01 55.10217 11.77473 26307 ft 450 kts 255°
2026-04-22 17:01 55.09415 11.72170 26639 ft 454 kts 254°
2026-04-22 17:01 55.08597 11.66825 26962 ft 458 kts 254°
2026-04-22 17:01 55.07766 11.61438 27277 ft 461 kts 254°
2026-04-22 17:02 55.06924 11.56014 27574 ft 465 kts 253°
2026-04-22 17:02 55.06069 11.50550 27858 ft 469 kts 253°
2026-04-22 17:02 55.05202 11.45037 28160 ft 473 kts 253°
2026-04-22 17:02 55.04326 11.39485 28464 ft 477 kts 253°
2026-04-22 17:03 55.03446 11.33897 28771 ft 480 kts 253°
2026-04-22 17:03 55.02563 11.28267 29066 ft 483 kts 253°
2026-04-22 17:03 55.01671 11.22602 29348 ft 486 kts 253°
2026-04-22 17:03 55.00764 11.16902 29674 ft 490 kts 252°
2026-04-22 17:04 55.00155 11.13108 29824 ft 493 kts 252°
2026-04-22 17:04 54.98915 11.05380 30159 ft 497 kts 252°
2026-04-22 17:04 54.97982 10.99558 30402 ft 501 kts 252°
2026-04-22 17:04 54.97042 10.93708 30625 ft 503 kts 251°
2026-04-22 17:05 54.96096 10.87826 30848 ft 506 kts 251°
2026-04-22 17:05 54.95143 10.81923 31078 ft 508 kts 251°
2026-04-22 17:05 54.94182 10.76000 31306 ft 510 kts 251°
2026-04-22 17:05 54.93211 10.70051 31524 ft 512 kts 251°
2026-04-22 17:06 54.92233 10.64090 31770 ft 513 kts 251°
2026-04-22 17:06 54.91269 10.58210 32086 ft 513 kts 251°
2026-04-22 17:06 54.90290 10.52252 32382 ft 513 kts 251°
2026-04-22 17:06 54.89307 10.46300 32682 ft 512 kts 251°
2026-04-22 17:07 54.88316 10.40358 32979 ft 513 kts 251°
2026-04-22 17:07 54.87319 10.34413 33279 ft 513 kts 251°
2026-04-22 17:07 54.86323 10.28473 33579 ft 513 kts 251°
2026-04-22 17:07 54.85326 10.22535 33879 ft 513 kts 251°
2026-04-22 17:08 54.84328 10.16602 34166 ft 513 kts 250°
2026-04-22 17:08 54.83313 10.10689 34318 ft 507 kts 247°
2026-04-22 17:08 54.81865 10.05227 34309 ft 492 kts 233°
2026-04-22 17:08 54.80075 10.00195 34323 ft 489 kts 232°
2026-04-22 17:09 54.76474 9.90214 34320 ft 488 kts 232°
2026-04-22 17:09 54.73465 9.81947 34329 ft 488 kts 232°
2026-04-22 17:10 54.69843 9.72020 34337 ft 487 kts 231°
2026-04-22 17:10 54.66223 9.62141 34346 ft 486 kts 231°
2026-04-22 17:11 54.62601 9.52293 34382 ft 485 kts 231°
2026-04-22 17:11 54.58985 9.42473 34379 ft 484 kts 231°
2026-04-22 17:12 54.55368 9.32706 34360 ft 483 kts 231°
2026-04-22 17:12 54.51749 9.22979 34361 ft 482 kts 231°
2026-04-22 17:13 54.48127 9.13281 34345 ft 482 kts 231°
2026-04-22 17:13 54.44508 9.03610 34356 ft 480 kts 231°
2026-04-22 17:14 54.40888 8.93985 34402 ft 479 kts 231°
2026-04-22 17:14 54.37275 8.84412 34396 ft 477 kts 231°
2026-04-22 17:15 54.33667 8.74900 34396 ft 475 kts 231°
2026-04-22 17:15 54.30061 8.65419 34393 ft 474 kts 231°
2026-04-22 17:16 54.26447 8.55978 34387 ft 474 kts 231°
2026-04-22 17:16 54.22839 8.46555 34397 ft 473 kts 232°
2026-04-22 17:17 54.19234 8.37162 34425 ft 472 kts 233°
2026-04-22 17:17 54.15631 8.27833 34421 ft 469 kts 232°
2026-04-22 17:18 54.12027 8.18569 34419 ft 468 kts 232°
2026-04-22 17:18 54.08432 8.09336 34415 ft 467 kts 232°
2026-04-22 17:19 54.01269 7.90990 34409 ft 466 kts 233°
2026-04-22 17:20 53.94075 7.72758 34431 ft 463 kts 234°
2026-04-22 17:21 53.88691 7.59211 34412 ft 461 kts 234°
2026-04-22 17:22 53.83319 7.45741 34413 ft 460 kts 233°
2026-04-22 17:23 53.77947 7.32315 34399 ft 459 kts 233°
2026-04-22 17:23 53.72566 7.18964 34435 ft 457 kts 235°
2026-04-22 17:24 53.68974 7.10119 34421 ft 456 kts 234°
2026-04-22 17:24 53.65384 7.01303 34424 ft 455 kts 234°
2026-04-22 17:25 53.61802 6.92511 34416 ft 455 kts 234°
2026-04-22 17:25 53.58221 6.83745 34418 ft 454 kts 234°
2026-04-22 17:26 53.54631 6.74991 34425 ft 454 kts 235°
2026-04-22 17:26 53.51034 6.66276 34422 ft 453 kts 236°
2026-04-22 17:27 53.47446 6.57591 34425 ft 452 kts 236°
2026-04-22 17:27 53.43857 6.48946 34421 ft 451 kts 236°
2026-04-22 17:28 53.40266 6.40330 34418 ft 450 kts 235°
2026-04-22 17:28 53.36678 6.31736 34418 ft 450 kts 235°
2026-04-22 17:29 53.33085 6.23157 34415 ft 450 kts 235°
2026-04-22 17:29 53.29488 6.14599 34405 ft 450 kts 236°
2026-04-22 17:30 53.25882 6.06062 34411 ft 449 kts 236°
2026-04-22 17:30 53.22278 5.97539 34426 ft 449 kts 236°
2026-04-22 17:31 53.18690 5.89093 34433 ft 449 kts 235°
2026-04-22 17:31 53.15071 5.80606 34433 ft 449 kts 235°
2026-04-22 17:32 53.11447 5.72142 34442 ft 449 kts 236°
2026-04-22 17:32 53.07818 5.63690 34442 ft 448 kts 236°
2026-04-22 17:33 53.04194 5.55264 34410 ft 448 kts 236°
2026-04-22 17:33 53.00567 5.46865 34418 ft 447 kts 236°
2026-04-22 17:34 52.96939 5.38492 34419 ft 446 kts 236°
2026-04-22 17:34 52.93307 5.30140 34401 ft 446 kts 236°
2026-04-22 17:35 52.89667 5.21813 34407 ft 446 kts 236°
2026-04-22 17:35 52.86024 5.13496 34420 ft 446 kts 236°
2026-04-22 17:36 52.82381 5.05193 34412 ft 446 kts 236°
2026-04-22 17:36 52.78736 4.96911 34400 ft 445 kts 236°
2026-04-22 17:37 52.75085 4.88658 34400 ft 445 kts 236°
2026-04-22 17:37 52.71431 4.80434 34383 ft 444 kts 236°
2026-04-22 17:38 52.67779 4.72217 34385 ft 444 kts 236°
2026-04-22 17:38 52.64147 4.64075 34372 ft 444 kts 236°
2026-04-22 17:39 52.60480 4.55895 34376 ft 444 kts 236°
2026-04-22 17:40 52.54970 4.43647 34372 ft 444 kts 236°
2026-04-22 17:40 52.51290 4.35491 34373 ft 444 kts 236°
2026-04-22 17:41 52.47604 4.27352 34365 ft 444 kts 236°
2026-04-22 17:41 52.43916 4.19218 34366 ft 444 kts 236°
2026-04-22 17:42 52.40217 4.11102 34370 ft 445 kts 236°
2026-04-22 17:42 52.37108 4.04307 34359 ft 445 kts 236°
2026-04-22 17:43 52.32789 3.94881 34343 ft 445 kts 236°
2026-04-22 17:43 52.29068 3.86793 34353 ft 445 kts 236°
2026-04-22 17:44 52.25342 3.78724 34356 ft 445 kts 236°
2026-04-22 17:44 52.21613 3.70675 34357 ft 445 kts 236°
2026-04-22 17:45 52.17878 3.62630 34364 ft 445 kts 236°
2026-04-22 17:45 52.14141 3.54604 34364 ft 445 kts 236°
2026-04-22 17:46 52.10395 3.46594 34359 ft 445 kts 236°
2026-04-22 17:46 52.06648 3.38603 34344 ft 444 kts 236°
2026-04-22 17:47 52.02904 3.30638 34363 ft 443 kts 236°
2026-04-22 17:47 51.99184 3.22669 34362 ft 441 kts 239°
2026-04-22 17:48 51.96916 3.15370 34363 ft 433 kts 255°
2026-04-22 17:48 51.96029 3.09071 34361 ft 426 kts 268°
2026-04-22 17:48 51.95730 3.04299 34352 ft 426 kts 268°
2026-04-22 17:49 51.95114 2.94752 34352 ft 426 kts 268°
2026-04-22 17:49 51.94472 2.85218 34340 ft 425 kts 267°
2026-04-22 17:50 51.93830 2.75774 34350 ft 424 kts 267°
2026-04-22 17:50 51.93186 2.66276 34354 ft 424 kts 267°
2026-04-22 17:51 51.92546 2.56794 34353 ft 423 kts 267°
2026-04-22 17:51 51.91898 2.47320 34355 ft 423 kts 267°
2026-04-22 17:52 51.91228 2.37865 34341 ft 422 kts 268°
2026-04-22 17:52 51.90619 2.28449 34364 ft 419 kts 270°
2026-04-22 17:53 51.90385 2.19065 34369 ft 416 kts 273°
2026-04-22 17:53 51.90273 2.09713 34368 ft 415 kts 273°
2026-04-22 17:54 51.90092 2.00368 34360 ft 415 kts 272°
2026-04-22 17:54 51.89822 1.91026 34350 ft 416 kts 269°
2026-04-22 17:55 51.88712 1.83328 34363 ft 423 kts 257°
2026-04-22 17:55 51.86565 1.72841 34377 ft 422 kts 257°
2026-04-22 17:56 51.85029 1.65293 34381 ft 421 kts 257°
2026-04-22 17:56 51.83203 1.56362 34363 ft 421 kts 257°
2026-04-22 17:57 51.81357 1.47378 34372 ft 421 kts 257°
2026-04-22 17:57 51.79502 1.38422 34359 ft 419 kts 257°
2026-04-22 17:58 51.77649 1.29531 34387 ft 417 kts 257°
2026-04-22 17:58 51.75795 1.20686 34388 ft 415 kts 257°
2026-04-22 17:59 51.73949 1.11877 34389 ft 414 kts 257°
2026-04-22 17:59 51.72099 1.03091 34385 ft 413 kts 256°
2026-04-22 18:00 51.70394 0.94277 34343 ft 408 kts 264°
2026-04-22 18:00 51.69703 0.85277 34366 ft 404 kts 268°
2026-04-22 18:01 51.69077 0.76291 34372 ft 403 kts 268°
2026-04-22 18:01 51.68435 0.67309 34374 ft 403 kts 268°
2026-04-22 18:02 51.67791 0.58328 34372 ft 403 kts 268°
2026-04-22 18:02 51.67141 0.49354 34369 ft 403 kts 268°
2026-04-22 18:03 51.66483 0.40378 34346 ft 404 kts 267°
2026-04-22 18:03 51.65825 0.31406 34351 ft 403 kts 267°
2026-04-22 18:04 51.65154 0.22425 34359 ft 404 kts 267°
2026-04-22 18:04 51.64458 0.13456 34363 ft 404 kts 266°
2026-04-22 18:05 51.63554 0.04514 34369 ft 405 kts 264°
2026-04-22 18:05 51.62532 -0.04399 34411 ft 405 kts 263°
2026-04-22 18:06 51.61536 -0.13247 34435 ft 404 kts 264°
2026-04-22 18:06 51.60751 -0.22177 34449 ft 402 kts 266°
2026-04-22 18:07 51.60079 -0.31104 34348 ft 402 kts 266°
2026-04-22 18:07 51.59374 -0.40023 34347 ft 402 kts 266°
2026-04-22 18:08 51.58626 -0.48927 34343 ft 402 kts 266°
2026-04-22 18:08 51.57860 -0.57827 34342 ft 402 kts 266°
2026-04-22 18:09 51.57090 -0.66723 34337 ft 402 kts 266°
2026-04-22 18:09 51.56324 -0.75592 33968 ft 397 kts 266°
2026-04-22 18:09 51.55943 -0.79974 33683 ft 395 kts 266°
2026-04-22 18:10 51.55560 -0.84332 33411 ft 393 kts 266°
2026-04-22 18:10 51.55176 -0.88672 33140 ft 392 kts 266°
2026-04-22 18:10 51.54793 -0.92995 32870 ft 390 kts 266°
2026-04-22 18:10 51.54414 -0.97300 32580 ft 389 kts 265°
2026-04-22 18:11 51.54034 -1.01596 32319 ft 388 kts 265°
2026-04-22 18:11 51.53649 -1.05881 32060 ft 387 kts 264°
2026-04-22 18:11 51.53263 -1.10161 31803 ft 386 kts 264°
2026-04-22 18:11 51.52934 -1.14424 31541 ft 381 kts 269°
2026-04-22 18:12 51.53001 -1.18632 31114 ft 375 kts 279°
2026-04-22 18:12 51.53453 -1.22725 30657 ft 371 kts 282°
2026-04-22 18:12 51.53779 -1.25419 30355 ft 370 kts 282°
2026-04-22 18:12 51.54423 -1.30813 29729 ft 365 kts 282°
2026-04-22 18:13 51.54896 -1.34799 29306 ft 361 kts 282°
2026-04-22 18:13 51.55361 -1.38740 28885 ft 357 kts 282°
2026-04-22 18:13 51.55819 -1.42639 28475 ft 353 kts 282°
2026-04-22 18:13 51.56269 -1.46498 28071 ft 349 kts 281°
2026-04-22 18:14 51.56711 -1.50313 27682 ft 346 kts 281°
2026-04-22 18:14 51.57147 -1.54092 27282 ft 342 kts 281°
2026-04-22 18:14 51.57579 -1.57831 26885 ft 338 kts 281°
2026-04-22 18:14 51.58006 -1.61532 26489 ft 335 kts 282°
2026-04-22 18:15 51.58430 -1.65208 26075 ft 333 kts 281°
2026-04-22 18:15 51.58789 -1.68877 25664 ft 331 kts 279°
2026-04-22 18:15 51.59072 -1.72546 25237 ft 330 kts 277°
2026-04-22 18:15 51.59318 -1.76217 24816 ft 330 kts 277°
2026-04-22 18:16 51.59553 -1.79881 24384 ft 329 kts 277°
2026-04-22 18:16 51.59787 -1.83488 23964 ft 329 kts 277°
2026-04-22 18:16 51.60035 -1.87148 23478 ft 329 kts 278°
2026-04-22 18:16 51.60291 -1.90791 23046 ft 327 kts 278°
2026-04-22 18:17 51.60551 -1.94416 22624 ft 326 kts 277°
2026-04-22 18:17 51.60812 -1.98034 22211 ft 325 kts 277°
2026-04-22 18:17 51.61071 -2.01645 21798 ft 324 kts 276°
2026-04-22 18:17 51.61131 -2.05260 21390 ft 323 kts 265°
2026-04-22 18:18 51.60757 -2.08811 20982 ft 322 kts 255°
2026-04-22 18:18 51.60170 -2.12286 20576 ft 321 kts 255°
2026-04-22 18:18 51.59591 -2.15751 20178 ft 321 kts 255°
2026-04-22 18:18 51.59016 -2.19218 19781 ft 321 kts 255°
2026-04-22 18:19 51.58443 -2.22677 19383 ft 321 kts 255°
2026-04-22 18:19 51.57869 -2.26141 18989 ft 321 kts 255°
2026-04-22 18:19 51.57292 -2.29608 18586 ft 321 kts 254°
2026-04-22 18:19 51.56713 -2.33071 18152 ft 321 kts 254°
2026-04-22 18:20 51.56135 -2.36521 17766 ft 319 kts 254°
2026-04-22 18:20 51.55558 -2.39961 17388 ft 318 kts 253°
2026-04-22 18:20 51.54983 -2.43384 17015 ft 317 kts 253°
2026-04-22 18:20 51.54408 -2.46798 16637 ft 316 kts 252°
2026-04-22 18:21 51.53914 -2.50248 16254 ft 321 kts 263°
2026-04-22 18:21 51.54085 -2.53842 15879 ft 327 kts 281°
2026-04-22 18:21 51.54680 -2.57386 15517 ft 329 kts 284°
2026-04-22 18:21 51.55328 -2.60913 15141 ft 329 kts 284°
2026-04-22 18:22 51.55970 -2.64429 14782 ft 328 kts 284°
2026-04-22 18:22 51.56602 -2.67940 14422 ft 326 kts 284°
2026-04-22 18:22 51.57238 -2.71440 14054 ft 326 kts 284°
2026-04-22 18:22 51.57878 -2.74926 13650 ft 325 kts 284°
2026-04-22 18:23 51.58500 -2.78405 13262 ft 323 kts 284°
2026-04-22 18:23 51.59122 -2.81870 12996 ft 322 kts 284°
2026-04-22 18:23 51.59751 -2.85321 12618 ft 321 kts 284°
2026-04-22 18:24 51.61005 -2.92179 11879 ft 319 kts 284°
2026-04-22 18:24 51.61643 -2.95580 11510 ft 316 kts 284°
2026-04-22 18:24 51.62853 -3.02343 10777 ft 312 kts 282°
2026-04-22 18:25 51.63363 -3.05725 10407 ft 309 kts 280°
2026-04-22 18:25 51.63831 -3.09079 10009 ft 305 kts 279°
2026-04-22 18:25 51.64284 -3.12410 9609 ft 303 kts 279°
2026-04-22 18:26 51.65188 -3.19002 8805 ft 300 kts 280°
2026-04-22 18:26 51.65644 -3.22268 8413 ft 298 kts 279°
2026-04-22 18:26 51.66101 -3.25526 8025 ft 298 kts 280°
2026-04-22 18:26 51.66558 -3.28768 7623 ft 296 kts 279°
2026-04-22 18:27 51.67009 -3.31982 7252 ft 294 kts 279°
2026-04-22 18:27 51.67454 -3.35162 6875 ft 288 kts 279°
2026-04-22 18:27 51.67891 -3.38266 6426 ft 281 kts 279°
2026-04-22 18:27 51.68316 -3.41285 6053 ft 273 kts 279°
2026-04-22 18:28 51.68722 -3.44184 5677 ft 265 kts 279°
2026-04-22 18:28 51.69125 -3.47068 5293 ft 263 kts 279°
2026-04-22 18:28 51.69519 -3.49909 5017 ft 254 kts 279°
2026-04-22 18:28 51.69900 -3.52652 5005 ft 251 kts 279°
2026-04-22 18:29 51.70277 -3.55395 5005 ft 249 kts 279°
2026-04-22 18:29 51.70652 -3.58127 5006 ft 249 kts 279°
2026-04-22 18:29 51.71026 -3.60852 5004 ft 249 kts 279°
2026-04-22 18:29 51.71400 -3.63569 5003 ft 244 kts 279°
2026-04-22 18:30 51.71761 -3.66163 4991 ft 230 kts 280°
2026-04-22 18:30 51.72448 -3.71153 4998 ft 228 kts 279°
2026-04-22 18:30 51.72603 -3.73653 4994 ft 222 kts 255°
2026-04-22 18:31 51.71982 -3.75780 5008 ft 203 kts 216°
2026-04-22 18:31 51.70847 -3.76991 5005 ft 194 kts 200°
2026-04-22 18:31 51.69657 -3.77992 4881 ft 192 kts 199°
2026-04-22 18:31 51.68460 -3.78990 4601 ft 195 kts 199°
2026-04-22 18:32 51.67253 -3.79993 4354 ft 195 kts 198°
2026-04-22 18:32 51.66005 -3.80638 4092 ft 183 kts 173°
2026-04-22 18:32 51.64812 -3.80267 3821 ft 171 kts 147°
2026-04-22 18:32 51.63877 -3.79139 3565 ft 168 kts 134°
2026-04-22 18:33 51.62990 -3.77907 3336 ft 169 kts 134°
2026-04-22 18:33 51.62101 -3.76680 3154 ft 168 kts 134°
2026-04-22 18:33 51.61215 -3.75459 3042 ft 168 kts 135°
2026-04-22 18:33 51.60330 -3.74239 3003 ft 168 kts 134°
2026-04-22 18:34 51.59442 -3.73017 3003 ft 168 kts 135°
2026-04-22 18:34 51.58552 -3.71793 3003 ft 168 kts 134°
2026-04-22 18:34 51.57663 -3.70568 3002 ft 168 kts 134°
2026-04-22 18:34 51.56774 -3.69341 3003 ft 169 kts 134°
2026-04-22 18:35 51.55882 -3.68111 3010 ft 169 kts 134°
2026-04-22 18:35 51.54990 -3.66885 3005 ft 169 kts 134°
2026-04-22 18:35 51.54097 -3.65658 3009 ft 169 kts 134°
2026-04-22 18:35 51.53203 -3.64429 3008 ft 169 kts 134°
2026-04-22 18:36 51.52305 -3.63198 3005 ft 169 kts 134°
2026-04-22 18:36 51.51409 -3.61971 3008 ft 169 kts 134°
2026-04-22 18:36 51.50513 -3.60745 3011 ft 169 kts 134°
2026-04-22 18:36 51.49618 -3.59517 3011 ft 169 kts 134°
2026-04-22 18:37 51.48721 -3.58287 3010 ft 170 kts 134°
2026-04-22 18:37 51.47823 -3.57052 3011 ft 171 kts 134°
2026-04-22 18:37 51.47227 -3.56233 3012 ft 170 kts 134°
2026-04-22 18:37 51.46065 -3.54524 3009 ft 167 kts 123°
2026-04-22 18:38 51.45496 -3.52924 2997 ft 165 kts 114°
2026-04-22 18:38 51.44984 -3.51284 2700 ft 165 kts 115°
2026-04-22 18:38 51.44465 -3.49623 2292 ft 167 kts 115°
2026-04-22 18:39 51.43447 -3.46376 1766 ft 160 kts 114°
2026-04-22 18:39 51.42962 -3.44834 1546 ft 148 kts 114°
2026-04-22 18:39 51.42517 -3.43416 1350 ft 140 kts 115°
2026-04-22 18:39 51.42087 -3.42047 1164 ft 138 kts 114°
2026-04-22 18:40 51.41660 -3.40690 964 ft 135 kts 114°
2026-04-22 18:40 51.41234 -3.39333 779 ft 137 kts 113°
2026-04-22 18:40 51.40811 -3.38008 604 ft 133 kts 115°
2026-04-22 18:40 51.40401 -3.36662 407 ft 131 kts 115°
2026-04-22 18:41 51.39973 -3.35330 277 ft 134 kts 112°
2026-04-22 18:41 51.39574 -3.34067 223 ft 115 kts 114°
2026-04-22 18:41 51.39356 -3.33346 223 ft 33 kts 123°
2026-04-22 18:41 51.39294 -3.33162 222 ft 9 kts 106°
2026-04-22 18:42 51.39327 -3.33089 222 ft 9 kts 27°
2026-04-22 18:42 51.39393 -3.33040 221 ft 11 kts
2026-04-22 18:42 51.39442 -3.33068 225 ft 11 kts 323°
2026-04-22 18:42 51.39477 -3.33160 221 ft 8 kts 294°
2026-04-22 18:43 51.39508 -3.33260 221 ft 14 kts 297°
2026-04-22 18:43 51.39554 -3.33404 220 ft 15 kts 297°
2026-04-22 18:43 51.39598 -3.33543 223 ft 14 kts 296°
2026-04-22 18:43 51.39641 -3.33678 223 ft 13 kts 296°
2026-04-22 18:44 51.39674 -3.33787 221 ft 10 kts 296°
2026-04-22 18:44 51.39718 -3.33836 221 ft 8 kts
2026-04-22 18:44 51.39744 -3.33819 221 ft 1 kts 26°